Location: Katowice
(50.2611°N, 19.0242°E)
Time: 11:46:28
(UTC+02:00)

A-11 Canister half - Pass Details

Date: 21 July 2019
Orbit: 1526 x 1683 km, 47.3° (Epoch: 23 August)

Event Time Altitude Azimuth Distance (km) Brightness Sun altitude
Rises 22:07:17 0° 238° (WSW) 4,910 11.7 -10.7°
Reaches altitude 10° 22:10:30 10° 236° (SW) 3,911 11.2 -11.0°
Maximum altitude 22:20:18 62° 159° (SSE) 1,800 9.1 -12.0°
Drops below altitude 10° 22:29:47 10° 82° (E) 3,803 10.8 -12.8°
Sets 22:32:52 0° 79° (E) 4,768 11.4 -13.1°
